FW5295 Weather Reports


time (UTC)temp
F
wind
direction
speed
knots
gust
knots
rain 1hr
in
rain 24hr
in
rain mn
in
humidity
%
barometer
mb
20260906045858 70 72 2.6 3.5 0.00 0.00 0.00 92 1016.7
20260906045358 70 82 2.6 6.1 0.00 0.00 0.00 92 1016.7
20260906044858 70 68 1.7 6.1 0.00 0.00 0.00 92 1016.7
20260906044359 70 33 0.9 3.5 0.00 0.00 0.00 92 1016.4
20260906043857 70 124 0.9 7.8 0.00 0.00 0.00 92 1016.7
20260906043355 70 86 3.5 7.8 0.00 0.00 0.00 92 1016.7
20260906042855 70 86 2.6 5.2 0.00 0.00 0.00 92 1016.4
20260906042353 70 59 1.7 4.3 0.00 0.00 0.00 92 1016.4
20260906041854 70 50 1.7 3.5 0.00 0.00 0.00 91 1016.7
20260906041354 70 13 1.7 4.3 0.00 0.00 0.00 91 1016.4
20260906040855 70 100 2.6 4.3 0.00 0.00 0.00 91 1016.4
20260906040611 70 0 1.7 6.1 0.00 0.00 0.00 91 1016.0
20260906035852 70 66 3.5 6.1 0.00 0.00 0.00 91 1016.4
20260906035352 70 106 2.6 6.1 0.00 0.00 0.00 91 1016.0
20260906034850 70 77 3.5 5.2 0.00 0.00 0.00 91 1016.4
20260906034351 70 66 3.5 5.2 0.00 0.00 0.00 91 1016.0
20260906034059 70 80 2.6 4.3 0.00 0.00 0.00 90 1016.0
20260906033953 70 48 1.7 4.3 0.00 0.00 0.00 90 1016.0
20260906032849 70 78 3.5 4.3 0.00 0.00 0.00 90 1016.0
20260906032400 70 87 2.6 5.2 0.00 0.00 0.00 90 1016.0
20260906031847 70 70 2.6 5.2 0.00 0.00 0.00 90 1016.0
20260906031348 70 91 1.7 3.5 0.00 0.00 0.00 90 1016.0
20260906030847 70 89 1.7 4.3 0.00 0.00 0.00 90 1016.0
20260906030345 70 82 1.7 5.2 0.00 0.00 0.00 90 1015.7
20260906030111 70 89 3.5 5.2 0.00 0.00 0.00 90 1015.7
20260906025400 71 80 2.6 4.3 0.00 0.00 0.00 89 1015.4
20260906025109 71 82 2.6 4.3 0.00 0.00 0.00 89 1016.0
20260906024601 71 79 1.7 5.2 0.00 0.00 0.00 89 1015.7
20260906023845 71 92 3.5 5.2 0.00 0.00 0.00 89 1015.7
20260906023345 71 89 1.7 5.2 0.00 0.00 0.00 90 1015.7
20260906022841 71 59 1.7 5.2 0.00 0.00 0.00 90 1015.7
20260906022342 71 88 1.7 7.8 0.00 0.00 0.00 89 1015.7
20260906021840 71 78 6.1 7.8 0.00 0.00 0.00 89 1015.7
20260906021341 71 94 0.9 5.2 0.00 0.00 0.00 89 1015.7
20260906020840 71 69 2.6 8.7 0.00 0.00 0.00 89 1015.7
20260906020339 71 76 3.5 9.6 0.00 0.00 0.00 89 1015.7
20260906020101 71 81 2.6 9.6 0.00 0.00 0.00 88 1015.7
20260906015340 71 80 5.2 7.0 0.00 0.00 0.00 88 1015.7
20260906014841 71 25 2.6 7.0 0.00 0.00 0.00 88 1015.7
20260906014338 71 4 0.9 5.2 0.00 0.00 0.00 88 1015.7
20260906014055 71 84 2.6 5.2 0.00 0.00 0.00 89 1016.0
20260906013337 71 40 1.7 6.1 0.00 0.00 0.00 88 1015.7
20260906012836 71 93 1.7 6.1 0.00 0.00 0.00 88 1016.0
20260906012338 71 66 1.7 6.1 0.00 0.00 0.00 88 1016.0
20260906011835 71 106 3.5 5.2 0.00 0.00 0.00 88 1015.7
20260906011336 71 70 2.6 5.2 0.00 0.00 0.00 88 1016.0
20260906011106 71 68 1.7 6.1 0.00 0.00 0.00 89 1015.7
20260906010334 71 83 4.3 6.1 0.00 0.00 0.00 89 1015.7
20260906005833 71 79 2.6 5.2 0.00 0.00 0.00 89 1015.7
20260906005334 71 53 1.7 6.1 0.00 0.00 0.00 89 1015.7
20260906005055 71 118 2.6 6.1 0.00 0.00 0.00 89 1015.7
20260906004331 72 86 3.5 8.7 0.00 0.00 0.00 89 1015.7
20260906003832 72 47 2.6 8.7 0.00 0.00 0.00 88 1015.7
20260906003338 72 26 4.3 8.7 0.00 0.00 0.00 87 1015.7
20260906002831 73 75 2.6 7.8 0.00 0.00 0.00 87 1015.7
20260906002330 73 55 0.0 10.4 0.00 0.00 0.00 87 1015.4
20260906001829 73 13 2.6 10.4 0.00 0.00 0.00 86 1015.4
20260906001329 74 68 5.2 7.8 0.00 0.00 0.00 86 1015.4
20260906000828 74 86 5.2 7.0 0.00 0.00 0.00 85 1015.0
20260906000327 74 81 3.5 4.3 0.00 0.00 0.00 86 1015.4
20260905235827 75 126 0.0 5.2 0.00 0.00 0.00 85 1015.0
20260905235554 75 352 1.7 5.2 0.00 0.00 0.00 84 1015.0
20260905234825 75 352 1.7 6.1 0.00 0.00 0.00 83 1015.0
20260905234325 75 50 3.5 7.8 0.00 0.00 0.00 83 1014.7
20260905233824 76 45 1.7 7.8 0.00 0.00 0.00 84 1015.0
20260905233324 76 70 1.7 6.1 0.00 0.00 0.00 83 1014.7
20260905232826 76 346 3.5 6.1 0.00 0.00 0.00 83 1015.0
20260905232323 76 45 0.9 5.2 0.00 0.00 0.00 83 1015.0
20260905231824 76 64 2.6 6.1 0.00 0.00 0.00 83 1015.0
20260905231323 77 85 5.2 6.1 0.00 0.00 0.00 83 1014.7
20260905230824 77 98 1.7 7.0 0.00 0.00 0.00 82 1014.7
20260905230333 78 99 2.6 7.0 0.00 0.00 0.00 81 1014.7
20260905225820 78 47 1.7 6.1 0.00 0.00 0.00 80 1014.3
20260905225323 78 52 4.3 6.1 0.00 0.00 0.00 80 1014.3
20260905224821 79 59 1.7 5.2 0.00 0.00 0.00 80 1014.3
20260905224321 79 37 3.5 5.2 0.00 0.00 0.00 79 1014.3
20260905223819 80 31 3.5 5.2 0.00 0.00 0.00 77 1014.3
20260905223318 80 174 1.7 5.2 0.00 0.00 0.00 76 1014.3
20260905222820 80 18 0.0 6.1 0.00 0.00 0.00 75 1014.0
20260905222317 80 334 3.5 6.1 0.00 0.00 0.00 74 1014.0
20260905221818 80 73 3.5 5.2 0.00 0.00 0.00 75 1014.3
20260905221318 80 357 1.7 4.3 0.00 0.00 0.00 76 1014.3
20260905220817 80 62 2.6 8.7 0.00 0.00 0.00 76 1014.0
20260905220314 80 332 1.7 8.7 0.00 0.00 0.00 75 1014.3
20260905215814 80 88 2.6 7.0 0.00 0.00 0.00 74 1014.0
20260905215314 80 353 0.9 3.5 0.00 0.00 0.00 75 1014.0
20260905215035 80 32 0.9 4.3 0.00 0.00 0.00 76 1014.3
20260905214755 80 343 2.6 5.2 0.00 0.00 0.00 76 1014.3
20260905213813 80 340 3.5 3.5 0.00 0.00 0.00 75 1014.3
20260905213314 80 24 0.9 5.2 0.00 0.00 0.00 76 1014.3
20260905212812 80 72 3.5 5.2 0.00 0.00 0.00 76 1014.3
20260905212310 80 299 0.0 4.3 0.00 0.00 0.00 76 1014.0
20260905211812 80 25 1.7 4.3 0.00 0.00 0.00 76 1014.3
20260905211311 80 7 2.6 4.3 0.00 0.00 0.00 77 1014.0
20260905210810 80 18 0.9 5.2 0.00 0.00 0.00 77 1014.3
20260905210534 80 352 1.7 5.2 0.00 0.00 0.00 77 1014.3
20260905205808 80 3 1.7 6.1 0.00 0.00 0.00 78 1014.3
20260905205309 80 81 1.7 6.1 0.00 0.00 0.00 77 1014.3
20260905205026 80 62 5.2 5.2 0.00 0.00 0.00 79 1014.3
20260905204309 79 247 0.9 4.3 0.00 0.00 0.00 81 1014.3
20260905203806 79 20 3.5 4.3 0.00 0.00 0.00 81 1014.3
20260905203308 79 96 2.6 6.1 0.00 0.00 0.00 81 1014.7
20260905202806 79 318 2.6 6.1 0.00 0.00 0.00 81 1014.7
20260905202306 78 14 0.0 3.5 0.00 0.00 0.00 82 1014.7
20260905201819 78 18 0.9 3.5 0.00 0.00 0.00 83 1014.3
20260905201305 78 59 3.5 5.2 0.00 0.00 0.00 84 1014.7
20260905200803 77 105 1.7 5.2 0.00 0.00 0.00 83 1014.7
20260905200520 78 12 2.6 5.2 0.00 0.00 0.00 83 1014.7
20260905195804 78 25 5.2 5.2 0.00 0.00 0.00 85 1014.7
20260905195306 77 68 1.7 5.2 0.00 0.00 0.00 85 1014.7
20260905195020 77 12 1.7 5.2 0.00 0.00 0.00 85 1014.7
20260905194301 77 56 3.5 5.2 0.00 0.00 0.00 85 1014.7
20260905193801 77 51 0.9 4.3 0.00 0.00 0.00 85 1014.7
20260905193300 77 30 0.9 7.0 0.00 0.00 0.00 85 1014.7
20260905192800 77 341 2.6 7.0 0.00 0.00 0.00 85 1015.0
20260905192300 77 10 2.6 5.2 0.00 0.00 0.00 85 1015.0
20260905191759 77 61 3.5 5.2 0.00 0.00 0.00 85 1015.0
20260905191300 77 11 2.6 5.2 0.00 0.00 0.00 85 1015.0
20260905190758 77 36 3.5 7.8 0.00 0.00 0.00 85 1015.0
20260905190259 77 22 3.5 7.8 0.00 0.00 0.00 85 1015.0
20260905185757 77 77 1.7 6.1 0.00 0.00 0.00 85 1015.0
20260905185255 78 77 2.6 7.0 0.00 0.00 0.00 85 1015.0
20260905184756 78 50 1.7 7.0 0.00 0.00 0.00 84 1015.0
20260905184514 78 349 4.3 5.2 0.00 0.00 0.00 84 1015.0
20260905183754 78 85 4.3 4.3 0.00 0.00 0.00 85 1015.0
20260905183253 78 7 1.7 8.7 0.00 0.00 0.00 85 1015.0
20260905182754 78 358 7.8 8.7 0.00 0.00 0.00 85 1015.0
20260905182254 78 354 2.6 5.2 0.00 0.00 0.00 85 1015.0
20260905181755 78 41 3.5 5.2 0.00 0.00 0.00 84 1015.0
20260905181513 78 33 3.5 7.0 0.00 0.00 0.00 84 1015.0
20260905180751 78 357 2.6 7.0 0.00 0.00 0.00 84 1015.0
20260905180307 79 4 1.7 6.1 0.00 0.00 0.00 85 1015.0
20260905175751 78 61 2.6 6.1 0.00 0.00 0.00 84 1015.0
20260905175251 79 354 1.7 6.1 0.00 0.00 0.00 83 1015.0
20260905174749 79 75 5.2 6.1 0.00 0.00 0.00 85 1014.7
20260905174518 78 98 1.7 7.0 0.00 0.00 0.00 85 1015.0
20260905173749 79 344 3.5 7.0 0.00 0.00 0.00 84 1014.7
20260905173249 79 79 0.9 4.3 0.00 0.00 0.00 84 1014.7
20260905172747 79 19 2.6 5.2 0.00 0.00 0.00 83 1014.7
20260905172246 80 65 1.7 6.1 0.00 0.00 0.00 82 1014.7
20260905171747 80 80 1.7 6.1 0.00 0.00 0.00 83 1014.7
20260905171246 79 35 1.7 6.1 0.00 0.00 0.00 84 1014.7
20260905170745 80 75 4.3 7.0 0.00 0.00 0.00 83 1014.7
20260905170246 80 187 0.0 7.0 0.00 0.00 0.00 83 1014.7
20260905165744 80 58 3.5 7.0 0.00 0.00 0.00 83 1014.7
20260905165244 80 67 3.5 7.0 0.00 0.00 0.00 83 1014.7
20260905165223 80 9 3.5 8.7 0.00 0.00 0.00 84 1015.0
20260905164508 80 45 2.6 8.7 0.00 0.00 0.00 85 1015.0
20260905164007 80 142 0.9 7.0 0.00 0.00 0.00 84 1015.0
20260905163242 79 11 2.6 5.2 0.00 0.00 0.00 87 1015.0
20260905162742 78 37 0.9 4.3 0.00 0.00 0.00 87 1014.7
20260905162240 78 88 4.3 5.2 0.00 0.00 0.00 87 1015.0
20260905161740 78 33 2.6 5.2 0.00 0.00 0.00 87 1015.0
20260905161456 77 15 0.9 4.3 0.00 0.00 0.00 88 1014.7
20260905160751 77 129 1.7 3.5 0.00 0.00 0.00 90 1015.0
20260905160253 76 56 2.6 4.3 0.00 0.00 0.00 89 1015.0
20260905155737 76 2 1.7 4.3 0.00 0.00 0.00 90 1015.0
20260905155239 76 347 3.5 5.2 0.00 0.00 0.00 90 1015.0
20260905155005 76 87 2.6 5.2 0.00 0.00 0.00 91 1015.0
20260905154237 76 62 2.6 4.3 0.00 0.00 0.00 91 1015.0
20260905153958 76 63 3.5 5.2 0.00 0.00 0.00 91 1014.7
20260905153235 75 105 1.7 6.1 0.00 0.00 0.00 91 1014.7
20260905152736 75 22 1.7 6.1 0.00 0.00 0.00 91 1014.7
20260905152456 76 359 2.6 3.5 0.00 0.00 0.00 90 1014.7
20260905151735 76 71 2.6 4.3 0.00 0.00 0.00 93 1014.3
20260905151234 75 31 1.7 7.8 0.00 0.00 0.00 92 1014.3
20260905150734 75 72 2.6 7.8 0.00 0.00 0.00 93 1014.3
20260905150502 74 81 1.7 6.1 0.00 0.00 0.00 94 1014.3
20260905145733 74 30 1.7 5.2 0.00 0.00 0.00 94 1014.3
20260905145231 74 125 1.7 5.2 0.00 0.00 0.00 95 1014.3
20260905144731 74 9 0.0 7.0 0.00 0.00 0.00 96 1014.3
20260905144230 73 70 5.2 7.0 0.00 0.00 0.00 96 1014.3
20260905143730 73 62 1.7 6.1 0.00 0.00 0.00 96 1014.3
20260905143230 73 1 1.7 6.1 0.00 0.00 0.00 97 1014.3
20260905142728 73 70 2.6 5.2 0.00 0.00 0.00 97 1014.0
20260905142229 73 79 2.6 5.2 0.00 0.00 0.00 97 1014.0
20260905141730 72 27 3.5 7.8 0.00 0.00 0.00 97 1014.3
20260905141227 72 57 2.6 7.8 0.00 0.00 0.00 97 1014.3
20260905140728 72 13 2.6 7.8 0.00 0.00 0.00 98 1014.3
20260905140225 72 75 5.2 7.8 0.00 0.00 0.00 98 1014.0
20260905135727 72 61 4.3 7.8 0.00 0.00 0.00 98 1014.0
20260905135226 72 104 2.6 7.8 0.00 0.00 0.00 98 1014.0
20260905134725 72 16 0.9 7.8 0.00 0.00 0.00 98 1014.3
20260905134225 72 84 3.5 5.2 0.00 0.00 0.00 98 1014.0
20260905133725 72 59 3.5 8.7 0.00 0.00 0.00 98 1014.0
20260905133224 72 84 3.5 8.7 0.00 0.00 0.00 98 1014.0
20260905132735 72 343 4.3 5.2 0.00 0.00 0.00 98 1014.3
20260905132224 73 65 2.6 5.2 0.00 0.00 0.00 98 1014.0
20260905131722 73 78 2.6 5.2 0.00 0.00 0.00 98 1014.3
20260905131220 73 78 2.6 4.3 0.00 0.00 0.00 98 1014.3
20260905130723 73 56 1.7 3.5 0.00 0.00 0.00 98 1014.3
20260905130221 73 64 1.7 3.5 0.00 0.00 0.00 98 1014.3
20260905125719 73 54 2.6 3.5 0.00 0.00 0.00 98 1014.0
20260905125220 73 65 1.7 5.2 0.00 0.00 0.00 98 1013.7
20260905124718 73 58 1.7 3.5 0.00 0.00 0.00 98 1013.7
20260905124220 73 22 0.9 3.5 0.00 0.00 0.00 98 1013.3
20260905123937 73 63 1.7 3.5 0.00 0.00 0.00 98 1013.7
20260905123218 73 111 1.7 3.5 0.00 0.00 0.00 98 1013.3
20260905122718 73 40 1.7 3.5 0.00 0.00 0.00 98 1013.3
20260905122217 73 38 0.0 1.7 0.00 0.00 0.00 98 1012.9
20260905121717 73 80 1.7 1.7 0.00 0.00 0.00 98 1012.9
20260905121214 73 124 0.9 3.5 0.00 0.00 0.00 98 1013.3
20260905120715 73 89 0.0 3.5 0.00 0.00 0.00 98 1012.9
20260905120448 73 96 1.7 2.6 0.00 0.00 0.00 98 1012.9
20260905115930 73 97 0.9 2.6 0.00 0.00 0.00 98 1012.9
20260905115215 73 343 0.0 2.6 0.00 0.00 0.00 98 1012.9
20260905114714 73 89 0.0 3.5 0.00 0.00 0.00 98 1012.9
20260905114212 73 25 0.0 3.5 0.00 0.00 0.00 98 1012.9
20260905113713 73 57 0.9 2.6 0.00 0.00 0.00 98 1012.5
20260905113212 73 50 0.0 2.6 0.00 0.00 0.00 98 1012.5
20260905112713 73 32 0.0 2.6 0.00 0.00 0.00 98 1012.5
20260905112436 73 67 1.7 2.6 0.00 0.00 0.00 98 1012.5
20260905111710 73 36 1.7 1.7 0.00 0.00 0.00 98 1012.5
20260905111209 73 21 0.9 1.7 0.00 0.00 0.00 98 1012.5
20260905110709 74 293 0.0 1.7 0.00 0.00 0.00 98 1012.2
20260905110208 74 32 0.0 1.7 0.00 0.00 0.00 98 1012.2
20260905105708 74 25 0.0 1.7 0.00 0.00 0.00 98 1012.2
20260905105427 74 29 0.0 3.5 0.00 0.00 0.00 98 1012.2
20260905105157 74 117 0.0 3.5 0.00 0.00 0.00 98 1012.2
20260905104206 74 23 0.0 2.6 0.00 0.00 0.00 98 1012.2
20260905103706 74 28 2.6 2.6 0.00 0.00 0.00 98 1012.2
20260905103205 74 349 1.7 1.7 0.00 0.00 0.00 98 1011.9
20260905102704 75 50 0.0 1.7 0.00 0.00 0.00 98 1012.2
20260905102648 75 341 0.0 1.7 0.00 0.00 0.00 98 1012.2
20260905101703 75 322 0.0 1.7 0.00 0.00 0.00 98 1012.2
20260905101203 75 322 0.0 1.7 0.00 0.00 0.00 98 1012.2
20260905100702 75 321 0.0 1.7 0.00 0.00 0.00 98 1012.2
20260905100645 75 17 0.0 1.7 0.00 0.00 0.00 98 1012.2
20260905095701 75 322 0.0 0.9 0.00 0.00 0.00 98 1012.5
20260905095201 75 242 0.0 0.9 0.00 0.00 0.00 98 1012.2
20260905094700 75 255 0.0 0.9 0.00 0.00 0.00 98 1012.2
20260905094159 75 322 0.0 0.0 0.00 0.00 0.00 98 1012.2
20260905093701 75 322 0.0 0.9 0.00 0.00 0.00 98 1011.9
20260905093159 75 314 0.0 0.9 0.00 0.00 0.00 98 1012.2
20260905092659 75 297 0.0 0.9 0.00 0.00 0.00 98 1012.2
20260905092157 75 0 0.9 1.7 0.00 0.00 0.00 98 1011.9
20260905091658 75 240 0.0 1.7 0.00 0.00 0.00 98 1011.9
20260905091424 75 226 0.9 1.7 0.00 0.00 0.00 98 1012.2
20260905090656 75 240 0.9 0.9 0.00 0.00 0.00 98 1012.2
20260905090156 75 301 0.0 1.7 0.00 0.00 0.00 98 1012.2
20260905085656 75 230 0.0 1.7 0.00 0.00 0.00 98 1012.2
20260905085154 75 287 1.7 1.7 0.00 0.00 0.00 98 1012.2
20260905084655 75 235 0.0 1.7 0.00 0.00 0.00 98 1011.9
20260905084633 75 239 0.0 1.7 0.00 0.00 0.00 98 1012.2
20260905083915 75 269 0.0 0.9 0.00 0.00 0.00 98 1011.9
20260905083154 75 242 0.0 0.9 0.00 0.00 0.00 98 1012.2
20260905082652 75 235 0.9 0.9 0.00 0.00 0.00 98 1012.2
20260905082153 75 309 0.0 0.9 0.00 0.00 0.00 98 1012.2
20260905081653 75 269 0.0 1.7 0.00 0.00 0.00 97 1012.2
20260905081151 75 239 0.9 1.7 0.00 0.00 0.00 97 1012.2
20260905080650 75 238 0.0 0.9 0.00 0.00 0.00 97 1011.9
20260905080149 75 255 0.0 1.7 0.00 0.00 0.00 97 1012.2
20260905075650 75 304 0.0 1.7 0.00 0.00 0.00 97 1012.2
20260905075150 75 309 0.0 0.9 0.00 0.00 0.00 97 1011.9
20260905074909 75 309 0.0 0.9 0.00 0.00 0.00 97 1012.2
20260905074150 75 309 0.0 0.9 0.00 0.00 0.00 97 1012.2
20260905073905 75 242 0.0 0.9 0.00 0.00 0.00 97 1012.2
20260905073146 75 269 0.0 0.9 0.00 0.00 0.00 97 1012.2
20260905072906 75 322 0.0 1.7 0.00 0.00 0.00 97 1012.2
20260905072145 75 237 0.0 1.7 0.00 0.00 0.00 97 1012.2
20260905071648 75 258 0.0 1.7 0.00 0.00 0.00 97 1012.2
20260905071158 75 283 0.0 1.7 0.00 0.00 0.00 96 1012.5
20260905070644 76 259 0.9 1.7 0.00 0.00 0.00 96 1012.2
20260905070143 76 235 0.9 0.9 0.00 0.00 0.00 96 1012.2
20260905065644 76 242 0.0 0.9 0.00 0.00 0.00 96 1012.5
20260905065402 76 205 0.9 1.7 0.00 0.00 0.00 96 1012.5
20260905064643 76 224 0.0 1.7 0.00 0.00 0.00 96 1012.5
20260905064411 76 242 0.9 1.7 0.00 0.00 0.00 96 1012.5
20260905063640 76 345 0.0 1.7 0.00 0.00 0.00 96 1012.2
20260905063406 76 22 0.0 1.7 0.00 0.00 0.00 96 1012.5
20260905062855 76 9 1.7 1.7 0.00 0.00 0.00 96 1012.5
20260905062139 76 315 0.0 1.7 0.00 0.00 0.00 96 1012.5
20260905061640 76 242 0.0 1.7 0.00 0.00 0.00 96 1012.5
20260905061138 76 6 0.0 1.7 0.00 0.00 0.00 96 1012.5
20260905060637 76 235 0.0 1.7 0.00 0.00 0.00 96 1012.5
20260905060359 76 183 1.7 1.7 0.00 0.00 0.00 96 1012.5
20260905055637 76 346 0.9 1.7 0.00 0.00 0.00 95 1012.5
20260905055135 77 205 0.0 1.7 0.00 0.00 0.00 95 1012.5
20260905054636 77 6 0.0 0.9 0.00 0.00 0.00 95 1012.5
20260905054136 77 32 0.0 0.9 0.00 0.00 0.00 95 1012.5
20260905053635 77 0 0.0 0.9 0.00 0.00 0.00 95 1012.5
20260905053401 77 29 0.0 0.9 0.00 0.00 0.00 94 1012.5
20260905052635 77 343 0.0 0.9 0.00 0.00 0.00 94 1012.5
20260905052136 78 322 0.0 0.9 0.00 0.00 0.00 93 1012.5
20260905051900 78 250 0.0 0.9 0.00 0.00 0.00 93 1012.2
20260905051133 78 297 0.0 0.0 0.00 0.00 0.00 93 1012.2
20260905050631 78 309 0.0 0.9 0.00 0.00 0.00 93 1012.5
20260905050131 78 305 0.0 0.9 0.00 0.00 0.00 92 1012.5